www.pogodaiklimat.ru

Погода и климат >> Архив погоды >> Финляндия >> Киттиля


ПОГОДА в Киттиля

  • Прогноз погоды в Киттиля
  • Монитор погоды в Киттиля

АРХИВ ПОГОДЫ в Киттиля

Время (UTC), дата Ветер
(напр.,м/с)
 
Видим.   Явления Облачность Т
(С)
Тd
(С)
f
(%)
Тe
(С)
Тes
(С)
Комфортность P
(гПа)
Po
(гПа)
Тmin
(С)
Tmax
(С)
R
(мм)
R24
(мм)
S
(см)
15 13.07 В 3 50 км 9/9 600 м
[]
+14.5 +6.5 59 +14 +14 1013.4 990.4
18 13.07 В 3 50 км 1/0
[]
+14.3 +6.9 61 +13 +14 1013.2 990.2 +10.0 +15.5
21 13.07 ЮВ 1 50 км 6/0
[]
+9.2 +6.4 83 +9 +9 1014.2 990.8
00 14.07 З 1 50 км 10/4 1500 м
[]
+5.9 +5.2 95 +5 +5 1014.9 991.1
03 14.07 З 1 50 км слаб. ливневой дождь 10/9 1500 м
[]
+8.2 +7.2 93 +7 +7 1014.8 991.2
06 14.07 ЮВ 1 30 км слаб. ливневой дождь 10/10 1000 м
[]
+9.5 +8.3 92 +9 +9 1014.7 991.3 +4.7 +14.3
09 14.07 В 3 50 км 10/10 200 м
[]
+10.4 +6.4 76 +8 +8 1014.7 991.3
12 14.07 В 3 19 км слаб. дождь 10/10 300 м
[]
+10.6 +8.3 86 +9 +9 1014.5 991.1
15 14.07 ЮЗ 1 50 км 9/1 1500 м
[]
+12.7 +6.6 66 +13 +16 1013.4 990.3
18 14.07 В 3 50 км 9/9 1500 м
[]
+12.5 +5.4 62 +11 +11 1013.1 989.9 +9.5 +13.5
21 14.07 В 2 50 км 9/9 2000 м
[]
+10.0 +5.1 72 +9 +9 1013.5 990.1
00 15.07 З 1 50 км 10/10 1500 м
[]
+7.7 +5.4 85 +7 +7 1013.7 990.1
03 15.07 В 2 50 км 9/8 1500 м
[]
+8.6 +5.0 78 +7 +7 1013.8 990.3
06 15.07 В 2 50 км 9/9 1500 м
[]
+10.5 +2.8 59 +9 +10 1013.5 990.1 +7.7 +12.5
09 15.07 СВ 2 50 км 10/10 1500 м
[]
+11.9 +3.1 55 +11 +11 1013.2 990.0
12 15.07 СВ 2 50 км 9/9 1500 м
[]
+12.7 +3.3 53 +12 +13 1012.8 989.7
15 15.07 В 3 50 км 10/10 1000 м
[]
+13.4 +3.2 50 +12 +12 1012.6 989.6
18 15.07 В 2 50 км 6/4 1500 м
[]
+12.9 +3.1 51 +12 +13 1012.9 989.8 +10.5 +13.8
21 15.07 СВ 2 50 км 4/4 2000 м
[]
+8.3 +4.0 74 +7 +7 1014.0 990.5
00 16.07 З 1 50 км 10/10 2000 м
[]
+6.0 +5.1 94 +5 +5 1014.6 990.9
03 16.07 штиль 0 50 км 10/10
[]
+8.3 +5.8 84 +7 +7 1015.0 991.5
06 16.07 СВ 2 50 км 10/10 2000 м
[]
+11.2 +6.2 71 +10 +10 1015.2 991.9 +5.8 +12.9
09 16.07 В 2 50 км 9/4 1000 м
[]
+13.4 +5.1 57 +13 +16 1014.6 991.4
12 16.07 С 2 50 км 6/6 1500 м
[]
+15.5 +3.2 44 +16 +19 1014.0 991.1
15 16.07 СВ 4 50 км 9/9 1500 м
[]
+14.3 +3.4 48 +13 +13 1014.4 991.4
18 16.07 СВ 3 50 км 10/10 1500 м
[]
+12.6 +3.0 52 +11 +11 1014.9 991.8 +11.0 +15.5
21 16.07 С 1 50 км 4/4 1500 м
[]
+5.7 +3.5 86 +5 +5 1015.9 992.1
00 17.07 С 3 45 км 6/6 600 м
[]
+5.5 +3.8 89 +2 +2 1016.2 992.4
03 17.07 С 3 50 км 9/9 300 м
[]
+7.3 +4.7 84 +4 +5 1015.7 992.0
06 17.07 В 3 50 км 9/9 300 м
[]
+9.1 +4.7 74 +7 +7 1014.9 991.4 +4.9 +12.6
09 17.07 СЗ 1 50 км 10/10 600 м
[]
+10.3 +5.1 70 +10 +10 1014.7 991.3
12 17.07 СВ 2 50 км 10/10 1000 м
[]
+12.3 +4.8 60 +12 +12 1013.8 990.6
15 17.07 Ю 2 50 км 8/8 1500 м
[]
+13.7 +5.1 56 +13 +14 1013.0 990.0
18 17.07 Ю 2 50 км 5/5 1000 м
[]
+13.9 +5.6 57 +14 +14 1013.1 990.1 +9.1 +14.9
21 17.07 Ю 2 50 км 1/1 1500 м
[]
+9.4 +6.0 79 +8 +8 1014.2 990.7
00 18.07 В 1 50 км 9/9 1500 м
[]
+5.5 +4.7 95 +4 +4 1015.6 991.8
03 18.07 ЮВ 2 50 км ясно +8.8 +5.9 82 +7 +8 1015.9 992.3
06 18.07 ЮВ 3 50 км ясно +13.0 +5.4 60 +12 +16 1016.0 992.8 +4.1 +13.9
09 18.07 СВ 2 50 км 3/3 1000 м
[]
+16.0 +5.3 49 +16 +23 1015.5 992.6
12 18.07 Ю 2 50 км ясно +17.6 +6.0 46 +18 +27 1015.1 992.3
15 18.07 ЮВ 3 50 км 4/4 2000 м
[]
+18.2 +6.3 46 +18 +21 1014.9 992.1
18 18.07 ЮВ 5 50 км 9/9
[]
+15.3 +9.3 67 +14 +14 1015.8 992.8 +13.0 +19.1
21 18.07 ЮВ 2 40 км слаб. дождь 10/10 300 м
[]
+11.9 +10.2 89 +11 +11 1016.4 993.1
00 19.07 СЗ 1 8000 м сильн. дождь 10/10 200 м
[]
+11.0 +10.7 98 +11 +11 1016.4 993.0
03 19.07 С 3 7000 м морось 10/10 100 м
[]
+11.5 +10.9 96 +10 +10 1015.7 992.4
06 19.07 СВ 3 50 км 10/10 200 м
[]
+12.4 +11.3 93 +11 +11 1015.2 992.0 +10.9 +15.3
09 19.07 С 2 50 км 10/10 300 м
[]
+14.1 +10.5 79 +14 +14 1014.8 991.7
12 19.07 В 2 50 км 9/0 2000 м
[]
+15.9 +9.9 68 +16 +21 1014.4 991.5
15 19.07 СЗ 1 50 км 9/9 2000 м
[]
+17.5 +9.6 60 +19 +19 1013.7 990.9
18 19.07 Ю 1 50 км ясно +17.8 +9.4 58 +19 +20 1013.4 990.6 +12.3 +19.0
21 19.07 ЮВ 2 50 км ясно +12.5 +10.6 88 +12 +12 1014.4 991.2
00 20.07 штиль 0 400 м туман ясно +6.9 +6.7 99 +6 +6 1015.3 991.7
03 20.07 В 1 2100 м в посл. час туман 9/9 <50 м
[]
+9.5 +9.3 99 +9 +9 1015.1 991.7
06 20.07 ЮВ 2 50 км ясно +16.2 +12.2 77 +16 +21 1014.4 991.5 +5.8 +17.8
09 20.07 ЮЗ 2 50 км ясно +20.2 +8.9 48 +22 +32 комфорт 1014.0 991.5
12 20.07 Ю 4 50 км 9/9 1500 м
[]
+21.4 +7.9 42 +22 +23 комфорт 1013.6 991.1

 

Местоположение метеостанции Киттиля (Финляндия): широта 67.70 долгота 24.85 высота над уровнем моря 196 м.

В архиве по умолчанию представлена погода в Киттиля за последнюю неделю. Архивные данные за месяц целиком и за предыдущие месяцы, начиная с января 2011 года, Вы можете получить, выбрав интересующий диапазон дат из раскрывающегося списка и нажав кнопку "Ввод!".


*Определитесь, кто Вы:
робот инопланетянин человек

Внимание! Время в таблицах - всемирное. Для получения местного времени необходимо прибавить поправку, которая равна 1 ч.

Смотрите также архив погоды в соседних городах и на ближайших метеорологических станциях:

Погода в Киттиля (Финляндия) (6 км)
Погода в Киттила Левитунтури (Финляндия) (9 км)
Погода в Киттила Кенттарова (Финляндия) (41 км)
Погода в Киттила Маторова (Финляндия) (42 км)
Погода в Киттиля Ломполонвуома (Финляндия) (43 км)
Погода в Муонио Саммалтунтури (Финляндия) (43 км)
Погода в Муонио Лаукукеро (Финляндия) (53 км)
Погода в Муонио Аламуонио (Финляндия) (59 км)
Погода в Киттила Покка (Финляндия) (65 км)
Погода в Паджала аэропорту (Швеция) (84 км)

Пояснения к столбцам:

Ветер - указаны скорость ветра в м/с - средняя за 10 мин, порывы в срок и между сроками (в фигурных скобках) и направление, откуда дует ветер: С - северный, СВ - северо-восточный, В - восточный, ЮВ - юго-восточный, Ю - южный, ЮЗ - юго-западный, З - западный, СЗ - северо-западный.
Видимость - горизонтальная дальность видимости в метрах или километрах. При видимости от 1 до 10 км при отсутствии осадков обычно наблюдается дымка, при ухудшении видимости до 1 км и менее - туман. В сухую погоду видимость может ухудшаться дымом, пылью или мглою.
Явления - указаны атмосферные явления, наблюдавшиеся в срок или в последний час перед сроком; фигурными скобками обозначены явления, наблюдавшиеся между сроками (за 1-3 часа до срока); квадратными скобками обозначены град или гололедные отложения с указанием их диаметра в мм.
Облачность - указаны через наклонную черту общая и нижняя облачность в баллах и высота нижней границы облаков в метрах; квадратными скобками обозначены формы облаков: Ci - перистые, Cs - перисто-слоистые, Cc - перисто-кучевые, Ac - высококучевые, As - высокослоистые, Sc - слоисто-кучевые, Ns - слоисто-дождевые, Cu - кучевые, Cb - кучево-дождевые. Подробнее классификацию облаков см. в Атласе облаков (PDF).
T - Температура воздуха - температура, измеренная на высоте 2 м над землей.
Td - Температура точки росы - температура, при понижении до которой содержащийся в воздухе водяной пар достигнет насыщения.
f - Относительная влажность воздуха - влажноcть воздуха, измеренная на высоте 2 м над землей.
Te - Эффективная температура - температура, которую ощущает одетый по сезону человек в тени. Характеристика душности погоды. При расчете учитывается влияние влажности воздуха и скорости ветра на теплоощущения человека.
Tes - Эффективная температура на солнце - температура, которую ощущает человек, с поправкой на солнечный нагрев. Характеристика знойности погоды. Зависит от высоты солнца над горизонтом, облачности и скорости ветра. Ночью, в пасмурную погоду, а также при ветре 12 м/с и более поправка равна нулю.
P - Атмосферное давление - приведенное к уровню моря атмосферное давление.
Po - Атмосферное давление - измеренное на уровне метеостанции атмосферное давление.
Tmin - Минимальная температура - минимум температуры воздуха на высоте 2 м над землей.
Tmax - Максимальная температура - максимум температуры воздуха на высоте 2 м над землей.
R - Количество осадков - Количество выпавших осадков за период времени, мм. При наведении курсора мыши на число - период времени, за который выпало указанное количество осадков.
R24 - Количество осадков - Количество выпавших осадков за 24 часа, мм.
S - Снежный покров - Высота снежного покрова, см. При наведении курсора мыши на число - состояние снежного покрова и степень покрытия местности в баллах.